{"data":{"norad_id":59418,"epoch":"2026-09-21T09:10:41.780928Z","epoch_age_seconds":88614,"freshness":"FRESH","line1":"1 59418U 24064W   26264.38242802 -.00001736  00000+0 -53593-4 0  9999","line2":"2 59418  43.0032  31.0719 0001190 269.4550  90.6165 15.27579033139152","mean_motion":15.27579033,"eccentricity":0.000119,"inclination_deg":43.0032,"raan_deg":31.0719,"arg_perigee_deg":269.455,"mean_anomaly_deg":90.6165,"bstar":-5.3593e-5,"rev_number":13915,"period_min":94.266808387125,"perigee_km":482.23551009706,"apogee_km":483.86847307706,"semimajor_km":6861.1889915871,"source":"CELESTRAK","updated_at":"2026-09-22T09:00:48.918365Z"}}